SWA4033 KATL-KJFK

Flight info

Callsign SWA4033
Flight time 1h 31m
Altitude 35000
Route PHIIL3 HRTWL Q64 SAWED Q108 SIE CAMRN5
Aircraft B738/M-SDE2E3FGHIRWXY/LB1

Departure

Time 2026-05-09 02:54
Airport Hartsfield Jackson Atlanta International Airport (KATL)

Arrival

Time 2026-05-09 04:26
Airport John F. Kennedy International Airport (KJFK)
Time Latitude Longitude Altitude Speed Heading
2026-05-09 02:37 33.64151 -84.43322 1005 ft 0 kts 90°
2026-05-09 02:38 33.64151 -84.43321 1005 ft 0 kts 90°
2026-05-09 02:41 33.64151 -84.43320 1005 ft 0 kts 90°
2026-05-09 02:45 33.64151 -84.43319 1005 ft 0 kts 90°
2026-05-09 02:48 33.64152 -84.43349 1005 ft 7 kts 93°
2026-05-09 02:48 33.64180 -84.43392 1005 ft 7 kts 178°
2026-05-09 02:49 33.64181 -84.43392 1005 ft 0 kts 179°
2026-05-09 02:49 33.64179 -84.43392 1005 ft 0 kts 179°
2026-05-09 02:49 33.64088 -84.43392 1005 ft 23 kts 180°
2026-05-09 02:50 33.63914 -84.43390 1005 ft 19 kts 180°
2026-05-09 02:50 33.63798 -84.43392 1005 ft 11 kts 181°
2026-05-09 02:50 33.63739 -84.43392 1005 ft 1 kts 179°
2026-05-09 02:50 33.63682 -84.43370 1005 ft 12 kts 138°
2026-05-09 02:51 33.63665 -84.43248 1005 ft 22 kts 90°
2026-05-09 02:51 33.63663 -84.43015 1005 ft 32 kts 90°
2026-05-09 02:51 33.63661 -84.42727 1005 ft 37 kts 96°
2026-05-09 02:51 33.63656 -84.42412 1006 ft 38 kts 89°
2026-05-09 02:52 33.63655 -84.42097 1006 ft 38 kts 90°
2026-05-09 02:52 33.63655 -84.41772 1005 ft 39 kts 91°
2026-05-09 02:52 33.63654 -84.41451 1005 ft 38 kts 90°
2026-05-09 02:52 33.63653 -84.41200 1005 ft 26 kts 91°
2026-05-09 02:53 33.63655 -84.40985 1005 ft 25 kts 90°
2026-05-09 02:53 33.63535 -84.40908 1006 ft 24 kts 181°
2026-05-09 02:53 33.63471 -84.41101 1004 ft 49 kts 270°
2026-05-09 02:53 33.63471 -84.41771 1005 ft 110 kts 270°
2026-05-09 02:54 33.63472 -84.42914 1006 ft 162 kts 269°
2026-05-09 02:54 33.63473 -84.44461 1019 ft 207 kts 270°
2026-05-09 02:54 33.63490 -84.46261 1362 ft 222 kts 269°
2026-05-09 02:54 33.63234 -84.48102 1986 ft 225 kts 248°
2026-05-09 02:55 33.62652 -84.49820 2755 ft 223 kts 243°
2026-05-09 02:55 33.61971 -84.51520 3381 ft 228 kts 240°
2026-05-09 02:55 33.61169 -84.53257 3777 ft 241 kts 239°
2026-05-09 02:55 33.60355 -84.55036 4427 ft 246 kts 242°
2026-05-09 02:56 33.59529 -84.56822 5025 ft 251 kts 230°
2026-05-09 02:56 33.58101 -84.58027 5625 ft 257 kts 204°
2026-05-09 02:56 33.56324 -84.58545 6237 ft 271 kts 187°
2026-05-09 02:56 33.54405 -84.58445 6858 ft 286 kts 169°
2026-05-09 02:57 33.52637 -84.57226 7459 ft 306 kts 137°
2026-05-09 02:57 33.51557 -84.54977 8082 ft 322 kts 106°
2026-05-09 02:57 33.51491 -84.52284 8732 ft 330 kts 80°
2026-05-09 02:57 33.52003 -84.49583 9404 ft 336 kts 76°
2026-05-09 02:58 33.52592 -84.46846 10039 ft 341 kts 76°
2026-05-09 02:58 33.53167 -84.44070 10630 ft 346 kts 76°
2026-05-09 02:58 33.53710 -84.41247 11227 ft 350 kts 77°
2026-05-09 02:58 33.54222 -84.38382 11831 ft 353 kts 78°
2026-05-09 02:59 33.54711 -84.35485 12465 ft 356 kts 78°
2026-05-09 02:59 33.55026 -84.33550 12872 ft 357 kts 78°
2026-05-09 02:59 33.55493 -84.30618 13520 ft 359 kts 78°
2026-05-09 02:59 33.55954 -84.27676 14127 ft 359 kts 78°
2026-05-09 03:00 33.56410 -84.24727 14694 ft 359 kts 79°
2026-05-09 03:00 33.56861 -84.21789 15271 ft 357 kts 78°
2026-05-09 03:00 33.57308 -84.18874 15853 ft 355 kts 78°
2026-05-09 03:00 33.57757 -84.15947 16341 ft 357 kts 78°
2026-05-09 03:01 33.58205 -84.13018 16818 ft 357 kts 78°
2026-05-09 03:01 33.58652 -84.10090 17314 ft 357 kts 77°
2026-05-09 03:01 33.59097 -84.07169 17814 ft 356 kts 77°
2026-05-09 03:01 33.59542 -84.04243 18211 ft 359 kts 77°
2026-05-09 03:02 33.60001 -84.01235 18276 ft 373 kts 77°
2026-05-09 03:02 33.60472 -83.98138 18442 ft 382 kts 77°
2026-05-09 03:02 33.60954 -83.94960 18629 ft 390 kts 77°
2026-05-09 03:02 33.61437 -83.91758 18994 ft 392 kts 77°
2026-05-09 03:03 33.61918 -83.88563 19322 ft 395 kts 78°
2026-05-09 03:03 33.62406 -83.85311 19669 ft 397 kts 78°
2026-05-09 03:03 33.62897 -83.82041 20018 ft 399 kts 78°
2026-05-09 03:03 33.63389 -83.78758 20368 ft 400 kts 78°
2026-05-09 03:04 33.63882 -83.75464 20723 ft 402 kts 78°
2026-05-09 03:04 33.64376 -83.72154 21085 ft 402 kts 78°
2026-05-09 03:04 33.64869 -83.68847 21443 ft 403 kts 78°
2026-05-09 03:04 33.65362 -83.65539 21804 ft 402 kts 78°
2026-05-09 03:05 33.65863 -83.62235 22120 ft 404 kts 77°
2026-05-09 03:05 33.66456 -83.58897 22140 ft 414 kts 75°
2026-05-09 03:05 33.67110 -83.55498 22228 ft 422 kts 75°
2026-05-09 03:05 33.67788 -83.52030 22295 ft 431 kts 75°
2026-05-09 03:06 33.68475 -83.48480 22365 ft 440 kts 75°
2026-05-09 03:06 33.69164 -83.44869 22434 ft 449 kts 75°
2026-05-09 03:06 33.69850 -83.41220 22565 ft 456 kts 76°
2026-05-09 03:06 33.70545 -83.37489 22841 ft 459 kts 76°
2026-05-09 03:07 33.71241 -83.33734 23184 ft 460 kts 76°
2026-05-09 03:07 33.71930 -83.30005 23695 ft 455 kts 76°
2026-05-09 03:07 33.72613 -83.26310 24109 ft 451 kts 76°
2026-05-09 03:07 33.73290 -83.22644 24533 ft 446 kts 76°
2026-05-09 03:08 33.73957 -83.19029 24961 ft 440 kts 76°
2026-05-09 03:08 33.74624 -83.15474 25376 ft 435 kts 73°
2026-05-09 03:08 33.75752 -83.12115 25360 ft 436 kts 54°
2026-05-09 03:08 33.77374 -83.09018 25419 ft 441 kts 51°
2026-05-09 03:09 33.79067 -83.05895 25456 ft 447 kts 51°
2026-05-09 03:09 33.80771 -83.02738 25517 ft 453 kts 51°
2026-05-09 03:09 33.82458 -82.99563 25567 ft 460 kts 52°
2026-05-09 03:09 33.84179 -82.96277 25615 ft 466 kts 52°
2026-05-09 03:10 33.85905 -82.92944 25694 ft 472 kts 53°
2026-05-09 03:10 33.87627 -82.89593 26037 ft 467 kts 53°
2026-05-09 03:10 33.89312 -82.86300 26621 ft 457 kts 53°
2026-05-09 03:10 33.90966 -82.83070 27152 ft 448 kts 53°
2026-05-09 03:11 33.92605 -82.79877 27283 ft 451 kts 53°
2026-05-09 03:11 33.94273 -82.76639 27197 ft 459 kts 53°
2026-05-09 03:11 33.95964 -82.73352 27247 ft 464 kts 53°
2026-05-09 03:11 33.97663 -82.70038 27298 ft 468 kts 54°
2026-05-09 03:12 33.99380 -82.66679 27345 ft 473 kts 54°
2026-05-09 03:12 34.01110 -82.63268 27395 ft 479 kts 53°
2026-05-09 03:12 34.02847 -82.59827 27478 ft 482 kts 53°
2026-05-09 03:12 34.04576 -82.56384 27852 ft 476 kts 53°
2026-05-09 03:13 34.07944 -82.49669 28450 ft 470 kts 53°
2026-05-09 03:13 34.11392 -82.42819 28372 ft 482 kts 54°
2026-05-09 03:14 34.14882 -82.35862 28673 ft 483 kts 54°
2026-05-09 03:14 34.16609 -82.32407 29077 ft 477 kts 54°
2026-05-09 03:14 34.18307 -82.29008 29513 ft 470 kts 55°
2026-05-09 03:15 34.21716 -82.22189 29495 ft 479 kts 55°
2026-05-09 03:15 34.25189 -82.15232 29451 ft 489 kts 54°
2026-05-09 03:16 34.28751 -82.08147 29473 ft 496 kts 53°
2026-05-09 03:16 34.32352 -82.01011 29769 ft 495 kts 53°
2026-05-09 03:17 34.34139 -81.97460 30020 ft 493 kts 53°
2026-05-09 03:17 34.35927 -81.93904 30014 ft 497 kts 53°
2026-05-09 03:17 34.39525 -81.86738 30037 ft 504 kts 54°
2026-05-09 03:18 34.43179 -81.79439 30047 ft 511 kts 54°
2026-05-09 03:18 34.46895 -81.71999 30058 ft 519 kts 54°
2026-05-09 03:19 34.50657 -81.64451 29996 ft 527 kts 54°
2026-05-09 03:19 34.54471 -81.56779 29999 ft 535 kts 54°
2026-05-09 03:20 34.58339 -81.48983 30005 ft 542 kts 54°
2026-05-09 03:20 34.62246 -81.41090 30015 ft 549 kts 54°
2026-05-09 03:21 34.66199 -81.33086 30025 ft 557 kts 54°
2026-05-09 03:21 34.70202 -81.24962 30028 ft 564 kts 54°
2026-05-09 03:22 34.74250 -81.16725 30040 ft 571 kts 55°
2026-05-09 03:22 34.78320 -81.08425 30034 ft 577 kts 55°
2026-05-09 03:23 34.82187 -80.99787 30025 ft 585 kts 62°
2026-05-09 03:23 34.85456 -80.90645 30010 ft 590 kts 65°
2026-05-09 03:24 34.88659 -80.81420 30029 ft 592 kts 64°
2026-05-09 03:24 34.91980 -80.72222 30022 ft 595 kts 63°
2026-05-09 03:25 34.95380 -80.62991 30025 ft 597 kts 63°
2026-05-09 03:25 34.98761 -80.53785 30013 ft 599 kts 63°
2026-05-09 03:26 35.02150 -80.44490 30018 ft 599 kts 63°
2026-05-09 03:26 35.05525 -80.35189 30013 ft 600 kts 63°
2026-05-09 03:27 35.08897 -80.25873 30020 ft 600 kts 63°
2026-05-09 03:27 35.12267 -80.16541 30018 ft 602 kts 63°
2026-05-09 03:28 35.15619 -80.07232 30027 ft 602 kts 63°
2026-05-09 03:28 35.18984 -79.97855 30019 ft 603 kts 63°
2026-05-09 03:29 35.22346 -79.88462 30019 ft 603 kts 63°
2026-05-09 03:29 35.25705 -79.79047 29972 ft 603 kts 63°
2026-05-09 03:30 35.29049 -79.69642 29999 ft 603 kts 64°
2026-05-09 03:30 35.32382 -79.60237 30070 ft 604 kts 63°
2026-05-09 03:31 35.35733 -79.50761 30051 ft 605 kts 63°
2026-05-09 03:31 35.39078 -79.41272 30002 ft 606 kts 63°
2026-05-09 03:32 35.42389 -79.31842 30032 ft 605 kts 63°
2026-05-09 03:32 35.45712 -79.22355 30029 ft 605 kts 63°
2026-05-09 03:33 35.49027 -79.12862 30034 ft 605 kts 64°
2026-05-09 03:33 35.52335 -79.03360 30042 ft 605 kts 64°
2026-05-09 03:34 35.55635 -78.93849 30036 ft 605 kts 64°
2026-05-09 03:34 35.58932 -78.84317 30015 ft 606 kts 64°
2026-05-09 03:35 35.62226 -78.74780 30027 ft 605 kts 64°
2026-05-09 03:35 35.65530 -78.65251 30022 ft 605 kts 63°
2026-05-09 03:36 35.68819 -78.55740 30025 ft 605 kts 63°
2026-05-09 03:36 35.72087 -78.46245 30027 ft 606 kts 63°
2026-05-09 03:37 35.75365 -78.36681 30033 ft 607 kts 63°
2026-05-09 03:37 35.78626 -78.27093 30019 ft 607 kts 63°
2026-05-09 03:38 35.81879 -78.17492 30029 ft 607 kts 63°
2026-05-09 03:38 35.85131 -78.07870 30038 ft 607 kts 63°
2026-05-09 03:39 35.88377 -77.98240 30028 ft 607 kts 63°
2026-05-09 03:39 35.91612 -77.88608 30014 ft 608 kts 63°
2026-05-09 03:40 35.94822 -77.79026 30033 ft 608 kts 63°
2026-05-09 03:40 35.98291 -77.69546 30008 ft 598 kts 49°
2026-05-09 03:41 36.00860 -77.65623 30082 ft 579 kts 37°
2026-05-09 03:41 36.03653 -77.62055 30038 ft 579 kts 36°
2026-05-09 03:41 36.09262 -77.54872 30041 ft 581 kts 38°
2026-05-09 03:42 36.14770 -77.47540 30034 ft 582 kts 38°
2026-05-09 03:42 36.20227 -77.40139 30033 ft 582 kts 38°
2026-05-09 03:43 36.25681 -77.32747 30037 ft 581 kts 38°
2026-05-09 03:43 36.31132 -77.25368 30079 ft 580 kts 38°
2026-05-09 03:44 36.36847 -77.18450 30057 ft 568 kts 31°
2026-05-09 03:44 36.42749 -77.12080 30030 ft 565 kts 30°
2026-05-09 03:45 36.48672 -77.05663 30037 ft 565 kts 31°
2026-05-09 03:45 36.54532 -76.99135 30084 ft 565 kts 32°
2026-05-09 03:46 36.60345 -76.92570 30042 ft 563 kts 32°
2026-05-09 03:46 36.65160 -76.87118 30034 ft 562 kts 32°
2026-05-09 03:47 36.70935 -76.80580 30045 ft 560 kts 32°
2026-05-09 03:47 36.76701 -76.74051 30053 ft 559 kts 32°
2026-05-09 03:48 36.82451 -76.67523 30050 ft 557 kts 32°
2026-05-09 03:48 36.88148 -76.61041 30044 ft 557 kts 32°
2026-05-09 03:49 36.93872 -76.54516 30047 ft 556 kts 32°
2026-05-09 03:49 36.99580 -76.47991 30018 ft 556 kts 33°
2026-05-09 03:50 37.05236 -76.41516 30022 ft 554 kts 33°
2026-05-09 03:50 37.10917 -76.35000 30025 ft 553 kts 33°
2026-05-09 03:51 37.16584 -76.28483 30062 ft 553 kts 33°
2026-05-09 03:51 37.22247 -76.21958 30035 ft 552 kts 33°
2026-05-09 03:52 37.27905 -76.15423 30031 ft 552 kts 33°
2026-05-09 03:52 37.33552 -76.08886 30037 ft 551 kts 33°
2026-05-09 03:53 37.39182 -76.02357 30038 ft 550 kts 34°
2026-05-09 03:53 37.44800 -75.95826 30030 ft 549 kts 34°
2026-05-09 03:54 37.50373 -75.89335 30011 ft 548 kts 34°
2026-05-09 03:54 37.56171 -75.83276 30019 ft 531 kts 21°
2026-05-09 03:55 37.62528 -75.78688 30019 ft 525 kts 18°
2026-05-09 03:55 37.68905 -75.74149 30010 ft 527 kts 20°
2026-05-09 03:56 37.75216 -75.69420 30014 ft 528 kts 21°
2026-05-09 03:56 37.81508 -75.64638 30025 ft 528 kts 21°
2026-05-09 03:57 37.87753 -75.59715 30021 ft 532 kts 25°
2026-05-09 03:57 37.93843 -75.54339 30027 ft 533 kts 26°
2026-05-09 03:58 37.99922 -75.48970 30065 ft 532 kts 26°
2026-05-09 03:58 38.06028 -75.43671 30009 ft 531 kts 25°
2026-05-09 03:59 38.12204 -75.38597 30003 ft 527 kts 23°
2026-05-09 03:59 38.18363 -75.33630 30013 ft 527 kts 24°
2026-05-09 04:00 38.24559 -75.28695 29995 ft 519 kts 16°
2026-05-09 04:00 38.27885 -75.27276 30028 ft 491 kts 359°
2026-05-09 04:00 38.31244 -75.26686 30018 ft 487 kts 358°
2026-05-09 04:01 38.37968 -75.25447 30008 ft 489 kts 359°
2026-05-09 04:01 38.44694 -75.24053 30043 ft 490 kts 359°
2026-05-09 04:02 38.51422 -75.22636 30011 ft 489 kts 360°
2026-05-09 04:02 38.58094 -75.21210 29993 ft 488 kts 360°
2026-05-09 04:03 38.64792 -75.19778 30024 ft 488 kts 360°
2026-05-09 04:03 38.71425 -75.17575 29975 ft 514 kts 21°
2026-05-09 04:04 38.74408 -75.14941 30028 ft 525 kts 29°
2026-05-09 04:04 38.77296 -75.12051 29985 ft 527 kts 30°
2026-05-09 04:04 38.83054 -75.06200 29987 ft 527 kts 30°
2026-05-09 04:05 38.88855 -75.00429 29990 ft 527 kts 29°
2026-05-09 04:05 38.94677 -74.94714 29998 ft 527 kts 29°
2026-05-09 04:06 39.00460 -74.89031 29995 ft 527 kts 29°
2026-05-09 04:06 39.06275 -74.83291 30010 ft 527 kts 29°
2026-05-09 04:07 39.12068 -74.77497 29983 ft 529 kts 31°
2026-05-09 04:07 39.17737 -74.71357 29479 ft 539 kts 33°
2026-05-09 04:08 39.20616 -74.68187 28911 ft 542 kts 33°
2026-05-09 04:08 39.23435 -74.65076 28716 ft 525 kts 33°
2026-05-09 04:08 39.26190 -74.62050 28107 ft 519 kts 32°
2026-05-09 04:08 39.28955 -74.59045 27290 ft 519 kts 33°
2026-05-09 04:09 39.31717 -74.56055 26542 ft 518 kts 33°
2026-05-09 04:09 39.34475 -74.53068 25801 ft 517 kts 33°
2026-05-09 04:09 39.37227 -74.50078 25084 ft 516 kts 33°
2026-05-09 04:09 39.39972 -74.47088 24386 ft 516 kts 34°
2026-05-09 04:10 39.42711 -74.44100 23720 ft 515 kts 34°
2026-05-09 04:10 39.45444 -74.41116 22921 ft 514 kts 34°
2026-05-09 04:10 39.48172 -74.38136 22143 ft 513 kts 34°
2026-05-09 04:10 39.50867 -74.35184 21835 ft 498 kts 34°
2026-05-09 04:11 39.53452 -74.32345 21631 ft 478 kts 34°
2026-05-09 04:11 39.55936 -74.29617 21503 ft 459 kts 34°
2026-05-09 04:11 39.58328 -74.26992 21367 ft 441 kts 34°
2026-05-09 04:11 39.60624 -74.24474 21247 ft 424 kts 33°
2026-05-09 04:12 39.62832 -74.22049 21138 ft 408 kts 33°
2026-05-09 04:12 39.64961 -74.19708 21034 ft 393 kts 33°
2026-05-09 04:12 39.67001 -74.17461 20924 ft 378 kts 33°
2026-05-09 04:12 39.68948 -74.15317 20815 ft 364 kts 33°
2026-05-09 04:13 39.70840 -74.13227 20686 ft 351 kts 32°
2026-05-09 04:13 39.72679 -74.11199 20390 ft 343 kts 32°
2026-05-09 04:13 39.74494 -74.09200 19960 ft 341 kts 32°
2026-05-09 04:13 39.76306 -74.07206 19474 ft 342 kts 33°
2026-05-09 04:14 39.78118 -74.05208 19019 ft 341 kts 33°
2026-05-09 04:14 39.79923 -74.03214 18627 ft 339 kts 33°
2026-05-09 04:14 39.81707 -74.01236 18290 ft 335 kts 33°
2026-05-09 04:14 39.83468 -73.99283 17885 ft 330 kts 33°
2026-05-09 04:15 39.85284 -73.97548 17542 ft 316 kts 21°
2026-05-09 04:15 39.87178 -73.96195 17256 ft 306 kts 18°
2026-05-09 04:15 39.89063 -73.94937 16792 ft 304 kts 18°
2026-05-09 04:15 39.90952 -73.93673 16278 ft 306 kts 19°
2026-05-09 04:16 39.92835 -73.92386 15799 ft 307 kts 20°
2026-05-09 04:16 39.94796 -73.91032 14557 ft 334 kts 21°
2026-05-09 04:16 39.96915 -73.89548 13384 ft 355 kts 22°
2026-05-09 04:16 39.99147 -73.87969 12052 ft 374 kts 22°
2026-05-09 04:17 40.01505 -73.86480 11311 ft 368 kts
2026-05-09 04:17 40.03889 -73.86068 11144 ft 338 kts 352°
2026-05-09 04:17 40.06215 -73.86135 10453 ft 337 kts 351°
2026-05-09 04:17 40.08583 -73.86241 9601 ft 343 kts 351°
2026-05-09 04:18 40.10987 -73.86349 8668 ft 348 kts 352°
2026-05-09 04:18 40.13432 -73.86450 7775 ft 353 kts 353°
2026-05-09 04:18 40.15902 -73.86543 6901 ft 357 kts 353°
2026-05-09 04:18 40.18399 -73.86629 6020 ft 361 kts 354°
2026-05-09 04:19 40.20926 -73.86711 5131 ft 364 kts 355°
2026-05-09 04:19 40.23461 -73.86791 4387 ft 362 kts 355°
2026-05-09 04:19 40.25934 -73.86864 3963 ft 349 kts 355°
2026-05-09 04:19 40.28315 -73.86935 3716 ft 332 kts 355°
2026-05-09 04:20 40.30556 -73.87001 3569 ft 313 kts 355°
2026-05-09 04:20 40.32678 -73.87067 3362 ft 299 kts 355°
2026-05-09 04:20 40.34698 -73.87131 3088 ft 289 kts 355°
2026-05-09 04:20 40.36668 -73.87195 2867 ft 276 kts 355°
2026-05-09 04:21 40.38540 -73.87255 2616 ft 261 kts 355°
2026-05-09 04:21 40.40310 -73.87311 2364 ft 248 kts 355°
2026-05-09 04:21 40.43558 -73.87414 2007 ft 215 kts 355°
2026-05-09 04:22 40.44976 -73.87458 1969 ft 192 kts 355°
2026-05-09 04:22 40.46253 -73.87497 1881 ft 180 kts 355°
2026-05-09 04:22 40.47536 -73.87540 1790 ft 188 kts 355°
2026-05-09 04:22 40.48817 -73.87551 1888 ft 180 kts
2026-05-09 04:23 40.49938 -73.86900 1905 ft 174 kts 31°
2026-05-09 04:23 40.50945 -73.86077 1907 ft 170 kts 28°
2026-05-09 04:23 40.52023 -73.85241 1902 ft 187 kts 28°
2026-05-09 04:23 40.53157 -73.84362 1994 ft 197 kts 28°
2026-05-09 04:24 40.54367 -73.83422 2073 ft 208 kts 28°
2026-05-09 04:24 40.55570 -73.82485 1877 ft 191 kts 28°
2026-05-09 04:24 40.56698 -73.81590 1369 ft 187 kts 29°
2026-05-09 04:24 40.57784 -73.80745 1057 ft 177 kts 29°
2026-05-09 04:25 40.58847 -73.79926 792 ft 176 kts 30°
2026-05-09 04:25 40.59882 -73.79109 582 ft 171 kts 32°
2026-05-09 04:25 40.60892 -73.78327 374 ft 168 kts 32°
2026-05-09 04:25 40.61889 -73.77553 204 ft 165 kts 33°
2026-05-09 04:26 40.62850 -73.76795 31 ft 155 kts 32°
2026-05-09 04:26 40.63695 -73.76139 23 ft 120 kts 32°
2026-05-09 04:26 40.64057 -73.75908 21 ft 10 kts 39°
2026-05-09 04:26 40.64153 -73.75863 22 ft 20 kts
2026-05-09 04:27 40.64283 -73.75829 21 ft 18 kts 11°
2026-05-09 04:27 40.64378 -73.75808 21 ft 6 kts
2026-05-09 04:27 40.64381 -73.75807 21 ft 0 kts
2026-05-09 04:27 40.64382 -73.75807 21 ft 0 kts
2026-05-09 04:28 40.64435 -73.75797 21 ft 17 kts
2026-05-09 04:28 40.64580 -73.75792 20 ft 14 kts 323°
2026-05-09 04:28 40.64637 -73.75947 19 ft 25 kts 298°
2026-05-09 04:28 40.64740 -73.76185 19 ft 37 kts 301°
2026-05-09 04:29 40.64873 -73.76475 20 ft 35 kts 301°
2026-05-09 04:29 40.64986 -73.76739 21 ft 29 kts 276°
2026-05-09 04:29 40.64970 -73.76954 20 ft 23 kts 301°
2026-05-09 04:29 40.65059 -73.77157 20 ft 32 kts 300°
2026-05-09 04:30 40.65064 -73.77416 19 ft 39 kts 202°
2026-05-09 04:30 40.64912 -73.77618 21 ft 25 kts 321°
2026-05-09 04:30 40.65006 -73.77806 19 ft 24 kts 301°
2026-05-09 04:30 40.65094 -73.77999 20 ft 24 kts 301°
2026-05-09 04:31 40.65129 -73.78201 19 ft 23 kts 273°
2026-05-09 04:31 40.65172 -73.78322 19 ft 4 kts 270°
2026-05-09 04:31 40.65141 -73.78366 19 ft 8 kts 183°
2026-05-09 04:31 40.65123 -73.78361 19 ft 1 kts 160°
2026-05-09 04:32 40.65116 -73.78357 19 ft 0 kts 153°